DW4360 Weather Reports


time (UTC)temp
C
wind
direction
speed
KPH
gust
KPH
rain 1hr
cm
rain 24hr
cm
rain mn
cm
humidity
%
barometer
mb
20260506000658 18 325 0.0 0.0 0.00 0.00 0.00 70 1014.3
20260505235657 18 325 0.0 0.0 0.00 0.00 0.00 70 1014.4
20260505234656 18 325 0.0 0.0 0.00 0.00 0.00 71 1014.5
20260505233655 18 330 0.0 0.0 0.00 0.00 0.00 71 1014.6
20260505232654 18 329 4.8 0.0 0.00 0.00 0.00 71 1014.6
20260505231653 18 327 0.0 0.0 0.00 0.00 0.00 70 1014.7
20260505230652 18 329 0.0 0.0 0.00 0.00 0.00 70 1014.7
20260505225651 18 329 0.0 0.0 0.00 0.00 0.00 72 1014.7
20260505224650 17 332 6.4 0.0 0.00 0.00 0.00 72 1014.8
20260505223649 17 345 0.0 0.0 0.00 0.00 0.00 73 1014.9
20260505222648 17 344 0.0 0.0 0.00 0.00 0.00 74 1014.9
20260505221647 17 322 0.0 0.0 0.00 0.00 0.00 74 1015.0
20260505220646 17 330 0.0 0.0 0.00 0.00 0.00 74 1015.0
20260505215645 17 330 0.0 0.0 0.00 0.00 0.00 73 1015.1
20260505213642 17 329 0.0 0.0 0.00 0.00 0.00 74 1015.1
20260505212641 17 329 0.0 0.0 0.00 0.00 0.00 74 1015.2
20260505211640 17 329 0.0 0.0 0.00 0.00 0.00 75 1015.2
20260505210639 17 332 0.0 0.0 0.00 0.00 0.00 73 1015.2
20260505205639 17 336 3.2 0.0 0.00 0.00 0.00 74 1015.3
20260505204638 17 323 0.0 0.0 0.00 0.00 0.00 73 1015.4
20260505203637 17 323 0.0 0.0 0.00 0.00 0.00 74 1015.4
20260505202635 17 323 0.0 0.0 0.00 0.00 0.00 73 1015.5
20260505201635 17 325 0.0 0.0 0.00 0.00 0.00 72 1015.4
20260505200633 17 326 6.4 0.0 0.00 0.00 0.00 71 1015.5
20260505195633 17 211 0.0 0.0 0.00 0.00 0.00 70 1015.5
20260505194631 17 211 1.6 0.0 0.00 0.00 0.00 72 1015.5
20260505192629 17 207 0.0 0.0 0.00 0.00 0.00 71 1015.6
20260505191628 17 207 0.0 0.0 0.00 0.00 0.00 71 1015.6
20260505190628 17 279 0.0 0.0 0.00 0.00 0.00 72 1015.6
20260505184625 16 279 0.0 0.0 0.00 0.00 0.00 75 1015.6
20260505183624 16 236 0.0 0.0 0.00 0.00 0.00 76 1015.8
20260505182623 16 236 0.0 0.0 0.00 0.00 0.00 76 1015.8
20260505181622 15 236 0.0 0.0 0.00 0.00 0.00 78 1015.7
20260505180621 15 236 0.0 0.0 0.00 0.00 0.00 77 1015.6
20260505175620 15 236 0.0 0.0 0.00 0.00 0.00 79 1015.6
20260505173619 15 236 0.0 0.0 0.00 0.00 0.00 77 1015.6
20260505172617 15 232 0.0 0.0 0.00 0.00 0.00 79 1015.6
20260505171616 15 232 0.0 0.0 0.00 0.00 0.00 79 1015.4
20260505170615 15 233 0.0 0.0 0.00 0.00 0.00 79 1015.3
20260505165614 15 233 0.0 0.0 0.00 0.00 0.00 79 1015.3
20260505164613 15 195 0.0 0.0 0.00 0.00 0.00 80 1015.3
20260505163612 14 265 0.0 0.0 0.00 0.00 0.00 79 1015.2
20260505162611 14 217 0.0 0.0 0.00 0.00 0.00 79 1015.2
20260505161610 14 217 0.0 0.0 0.00 0.00 0.00 81 1015.1
20260505160609 14 217 0.0 0.0 0.00 0.00 0.00 81 1015.1
20260505152605 13 217 0.0 0.0 0.00 0.00 0.00 84 1015.0
20260505150603 13 217 0.0 0.0 0.00 0.00 0.00 85 1015.0
20260505124549 12 217 0.0 0.0 0.00 0.00 0.00 84 1013.9
20260505123548 12 217 0.0 0.0 0.00 0.00 0.00 84 1013.9
20260505122547 12 217 0.0 0.0 0.00 0.00 0.00 84 1013.9
20260505121546 12 217 0.0 0.0 0.00 0.00 0.00 84 1013.9
20260505120545 12 217 0.0 0.0 0.00 0.00 0.00 84 1013.8
20260505112541 12 217 0.0 0.0 0.00 0.00 0.00 85 1013.7
20260505111540 12 217 0.0 0.0 0.00 0.00 0.00 84 1013.8
20260505110539 12 217 0.0 0.0 0.00 0.00 0.00 84 1013.7
20260505095532 12 216 0.0 0.0 0.00 0.00 0.00 83 1013.3
20260505094532 12 209 0.0 0.0 0.00 0.00 0.00 83 1013.2
20260505092528 13 249 0.0 0.0 0.00 0.00 0.00 81 1013.1
20260505091527 13 250 0.0 0.0 0.00 0.00 0.00 81 1013.0
20260505090526 13 250 0.0 0.0 0.00 0.00 0.00 80 1012.9
20260505085526 13 261 0.0 0.0 0.00 0.00 0.00 80 1012.8
20260505081522 14 270 0.0 0.0 0.00 0.00 0.00 78 1012.6
20260505080521 15 270 0.0 0.0 0.00 0.00 0.00 78 1012.6
20260505075519 15 270 0.0 0.0 0.00 0.00 0.00 78 1012.5
20260505074518 15 270 0.0 0.0 0.00 0.00 0.00 78 1012.4
20260505073517 15 270 0.0 0.0 0.00 0.00 0.00 76 1012.2
20260505071515 15 270 0.0 0.0 0.00 0.00 0.00 76 1012.0
20260505070515 15 272 0.0 0.0 0.00 0.00 0.00 76 1011.9
20260505065514 15 263 0.0 0.0 0.00 0.00 0.00 76 1011.8
20260505064512 16 321 0.0 0.0 0.00 0.00 0.00 76 1011.7
20260505063511 16 321 0.0 0.0 0.00 0.00 0.00 75 1011.5
20260505062510 16 327 0.0 0.0 0.00 0.00 0.00 74 1011.4
20260505061509 16 329 0.0 0.0 0.00 0.00 0.00 74 1011.2
20260505060509 17 329 0.0 0.0 0.00 0.00 0.00 73 1011.1
20260505055507 17 329 0.0 0.0 0.00 0.00 0.00 73 1011.2
20260505053505 17 329 0.0 0.0 0.00 0.00 0.00 71 1011.0
20260505052504 18 331 0.0 0.0 0.00 0.00 0.00 70 1010.9
20260505050502 18 331 0.0 0.0 0.00 0.00 0.00 69 1010.7
20260505041457 20 281 6.4 0.0 0.00 0.00 0.00 68 1010.0
20260505035455 20 210 0.0 0.0 0.00 0.00 0.00 70 1009.7
20260505033453 20 209 0.0 0.0 0.00 0.00 0.00 70 1009.3
20260505032452 20 205 0.0 0.0 0.00 0.00 0.00 69 1009.1
20260505031451 21 204 1.6 0.0 0.00 0.00 0.00 68 1009.0
20260505030450 21 225 0.0 0.0 0.00 0.00 0.00 68 1008.9
20260505023447 21 249 0.0 0.0 0.00 0.00 0.00 66 1008.7
20260505022446 21 249 4.8 0.0 0.00 0.00 0.00 66 1008.8
20260505021446 22 197 1.6 0.0 0.00 0.00 0.00 66 1008.7
20260505020444 22 195 0.0 0.0 0.00 0.00 0.00 65 1008.7
20260505015443 22 254 0.0 0.0 0.00 0.00 0.00 63 1008.7
20260505014442 22 247 0.0 0.0 0.00 0.00 0.00 63 1008.7
20260505013441 22 210 0.0 0.0 0.00 0.00 0.00 63 1008.8
20260505012440 22 203 0.0 0.0 0.00 0.00 0.00 62 1008.9
20260505011439 23 218 0.0 0.0 0.00 0.00 0.00 61 1009.0
20260505010438 23 219 0.0 0.0 0.00 0.00 0.00 61 1008.9
20260505005437 23 230 0.0 0.0 0.00 0.00 0.00 59 1009.0
20260505004436 23 229 4.8 0.0 0.00 0.00 0.00 60 1009.1
20260505003435 24 225 6.4 0.0 0.00 0.00 0.00 57 1009.1
20260505002434 25 247 6.4 0.0 0.00 0.00 0.00 54 1009.1
20260505001432 25 246 6.4 0.0 0.00 0.00 0.00 56 1009.1